Location: Burgwalden
(48.2830°N, 10.7576°E)
Time: 20:40:36
(UTC+00:00)

Cosmos 1833 Rocket - Pass Details

Date: 26 September 2023
Orbit: 830 x 841 km, 71.0° (Epoch: 08 December)

Event Time Altitude Azimuth Distance (km) Brightness Sun altitude
Exits shadow 01:17:24 32° 4° (N) 1,387 4.1 -35.2°
Drops below altitude 10° 01:20:33 10° 21° (NNE) 2,450 5.8 -34.9°
Sets 01:23:03 0° 26° (NNE) 3,389 6.8 -34.6°
